Regional Weather Roundup
Issued by NWS

Home | Current Version | Previous Version | Graphics & Text | Print | Product List | Glossary On
Versions: 1 2 3 4 5 6 7 8 9 10 11 12 13 14 15 16 17 18 19 20 21 22 23 24 25 26 27 28 29 30 31 32 33 34 35 36 37 38 39 40 41 42 43 44 45 46 47 48 49 50
000
ASUS44 KMEG 291910
RWRTN
TENNESSEE HOURLY STATE WEATHER ROUNDUP
NATIONAL WEATHER SERVICE MEMPHIS TN
200 PM CDT WED OCT 29 2014

TNZ002-004-019-021-049-052-054-088>092-292000-
WEST TENNESSEE

CITY           SKY/WX    TMP DP  RH WIND       PRES   REMARKS
MEMPHIS INTL   MOSUNNY   70  44  39 N8        30.16F
NWS MEMPHIS      N/A     68 N/A N/A MISG        N/A
JACKSON        SUNNY     67  39  35 N7        30.15F
DYERSBURG      SUNNY     64  39  39 W8        30.17F
UNION CITY     MOSUNNY   64  43  45 W9        30.14F
PARIS          MOSUNNY   63  45  51 W8        30.14F
HUNTINGDON     SUNNY     64  35  34 W9        30.14F
LEXINGTON      SUNNY     66  32  28 N8        30.13F
SAVANNAH       SUNNY     66  43  42 N8        30.15S
$$

TNZ008-025-027-028-033-062-065-066-292000-
NORTH MIDDLE TENNESSEE

CITY           SKY/WX    TMP DP  RH WIND       PRES   REMARKS
NASHVILLE      MOSUNNY   67  40  37 NW9       30.12F
DICKSON        SUNNY     64  34  32 NW8       30.12
CLARKSVILLE    SUNNY     64  42  44 W12G18    30.12F
LEBANON        SUNNY     65  39  38 NW12      30.11
SMYRNA         MOSUNNY   66  39  37 N12       30.13F
COOKEVILLE     SUNNY     64  41  42 VRB3      30.10F
LIVINGSTON     SUNNY     60  39  45 W7        30.11
CROSSVILLE     SUNNY     62  36  37 CALM      30.10F
$$

TNZ061-075-076-078-094-096-097-292000-
SOUTH MIDDLE TENNESSEE

CITY           SKY/WX    TMP DP  RH WIND       PRES   REMARKS
FAYETTEVILLE   SUNNY     63  39  42 N21G44    30.11F
TULLAHOMA      SUNNY     63  39  42 N9        30.12F
WINCHESTER     SUNNY     64  45  48 N10       30.11F
MCMINNVILLE    SUNNY     63  43  48 N8        30.11F
COLUMBIA       SUNNY     66  39  37 NW8       30.11F
SHELBYVILLE    SUNNY     64  43  45 N8        30.13F
$$

TNZ017-018-042-046-047-292000-
NORTHEAST TENNESSEE

CITY           SKY/WX    TMP DP  RH WIND       PRES   REMARKS
TRI CITIES     CLOUDY    55  47  74 SW6       30.09F
ELIZABETHTON   DRIZZLE   52  46  82 SW6       30.09S
$$

TNZ012-013-036-069-073-074-292000-
CENTRAL EAST TENNESSEE

CITY           SKY/WX    TMP DP  RH WIND       PRES   REMARKS
KNOXVILLE      PTSUNNY   58  49  72 NE5       30.09F
OAK RIDGE      SUNNY     62  45  53 CALM      30.10F
GATLINBURG     CLOUDY    54  48  82 VRB3      30.10F
MORRISTOWN     MOCLDY    57  46  67 VRB3      30.10F
$$

TNZ083-085-099-292000-
SOUTHEAST TENNESSEE

CITY           SKY/WX    TMP DP  RH WIND       PRES   REMARKS
CHATTANOOGA    MOSUNNY   63  46  54 NE10      30.10F
$$

SKY/WX REPORTED AS FAIR MEANS FEW OR NO CLOUDS BELOW
12 THOUSAND FEET.




USA.gov is the U.S. government's official web portal to all federal, state and local government web resources and services.